Regional Weather Roundup
Issued by NWS

Home | Current Version | Previous Version | Text Only | Print | Product List | Glossary Off
Versions: 1 2 3 4 5 6 7 8 9 10 11 12 13 14 15 16 17 18 19 20 21 22 23 24 25 26 27 28 29 30 31 32 33 34 35 36 37 38 39 40 41 42 43 44 45 46 47 48 49 50

000
ASUS43 KFSD 041410
RWRSD

WEATHER ROUNDUP FOR SOUTH DAKOTA
NATIONAL WEATHER SERVICE SIOUX FALLS SD
900 AM CDT SAT JUL 04 2015

NOTE: "FAIR" INDICATES FEW OR NO CLOUDS BELOW 12,000 FEET WITH NO
SIGNIFICANT WEATHER AND/OR OBSTRUCTIONS TO VISIBILITY.


SDZ001>005-009-010-012>017-041500-
NORTHWEST AND NORTH CENTRAL SOUTH DAKOTA

CITY           SKY/WX    TMP DP  RH WIND       PRES   REMARKS
BUFFALO          N/A     68  62  81 S3        29.79S
FAITH            N/A     70  61  73 S15       29.83F
MOBRIDGE       SUNNY     71  67  87 SE15      29.82F
$$

SDZ012>016-024>037-041>051-057-063-072>074-041500-
SOUTHWEST AND SOUTH CENTRAL SOUTH DAKOTA

CITY           SKY/WX    TMP DP  RH WIND       PRES   REMARKS
RAPID CTY ARPT SUNNY     70  62  76 S8        29.86F
PIERRE         SUNNY     70  64  81 SE7       29.85F
CUSTER         SUNNY     70  55  59 W5        30.01F
ELLSWORTH AFB  MOSUNNY   71  61  71 S9        29.84F
PHILIP         MOSUNNY   70  65  84 E5        29.85F
PINE RIDGE     SUNNY     72  61  68 S18G24    29.90S
SPEARFISH      FAIR      72  61  68 NE3       29.90S
WINNER         FAIR      75  60  59 S15       29.89F
$$

SDZ004>011-016>023-039-040-041500-
NORTHEAST SOUTH DAKOTA

CITY           SKY/WX    TMP DP  RH WIND       PRES   REMARKS
ABERDEEN       MOSUNNY   68  65  90 S9        29.89F FOG
WATERTOWN      SUNNY     69  64  84 S7        29.94S HAZE
BROOKINGS      SUNNY     66  63  88 S8        29.97S
SISSETON         N/A     72  66  81 S3        29.90F
$$

SDZ017-020-022-023-036>040-048>070-041500-
SOUTHEAST SOUTH DAKOTA

CITY           SKY/WX    TMP DP  RH WIND       PRES   REMARKS
SIOUX FALLS    SUNNY     69  64  84 S5        29.97S
HURON          MOSUNNY   69  64  84 S7        29.90F HAZE
CHAMBERLAIN    MOSUNNY   70  65  85 S8        29.90F
MITCHELL       MOSUNNY   71  65  81 S8        29.93F
YANKTON        SUNNY     66  63  88 SE3       29.95S
$$

ABBREVIATIONS USED IN REMARKS
   TC - TEMPERATURE IN CELSIUS
  WCI - WIND CHILL INDEX
   HX - HEAT INDEX
  VSB - VISIBILITY



USA.gov is the U.S. government's official web portal to all federal, state and local government web resources and services.